Flag for U.S.A. Weather past 2 weeks in Newark, New Jersey, U.S.A.

Now
69 °F

Light rain. Mostly cloudy.


Feels Like: 69 °F
Forecast: 68 / 79 °F
Wind: 6 mph from North

Location: Newark International Airport

Current Time: Aug 21, 2014 at 4:13:15 AM

Latest Report: Aug 21, 2014 at 3:51 AM


Visibility: 10 mi

Pressure: 30.02 "Hg

Humidity: 81%

Dew point: 63 °F

Location of NewarkLocation

Historic Weather in Newark — Graph

°F

Newark temperature yesterday

Maximum temperature yesterday: 82 °F (at 12:51 PM)
Minimum temperature yesterday: 70 °F (at 12:51 AM)
Average temperature yesterday: 75 °F

Past Weeks' High & Low Weather Summary

 TemperatureHumidityPressure
High87 °F (Aug 10, 1:51 PM)97% (Aug 13, 8:51 AM)30.14 "Hg (Aug 13, 8:51 AM)
Low58 °F (Aug 16, 6:51 AM)26% (Aug 7, 3:51 PM)29.65 "Hg (Aug 13, 4:51 PM)
Average74 °F56%29.95 "Hg
* Reported Aug 6 2:51 AM — Aug 21 2:51 AM, Newark, Weather by CustomWeather, © 2014

Note: Actual official high and low records may vary slightly from our data, if they occured in-between our weather recording intervals... More about our weather records

Advertising

Newark weather history for previous 24 hours

 ConditionsComfort  
Time TempWeatherWind HumidityBarometerVisibility
2:51 AM
Aug 21
72 °FMostly cloudy.3 mph71%30.03 "Hg10 mi
1:51 AM73 °FMostly cloudy.8 mph69%30.04 "Hg10 mi
12:51 AM72 °FPartly cloudy.6 mph71%30.04 "Hg10 mi
11:51 PM
Aug 20
72 °FPassing clouds.5 mph71%30.03 "Hg10 mi
10:51 PM72 °FPassing clouds.5 mph71%30.01 "Hg10 mi
9:51 PM73 °FPassing clouds.7 mph66%30.01 "Hg10 mi
8:51 PM74 °FPassing clouds.6 mph64%30.01 "Hg10 mi
7:51 PM75 °FBroken clouds.7 mph58%30.01 "Hg10 mi
6:51 PM77 °FPartly sunny.7 mph47%29.99 "Hg10 mi
5:51 PM78 °FScattered clouds.9 mph50%29.99 "Hg10 mi
4:51 PM81 °FScattered clouds.7 mph42%29.98 "Hg10 mi
3:51 PM81 °FScattered clouds.12 mph42%29.97 "Hg10 mi
2:51 PM82 °FScattered clouds.9 mph43%29.97 "Hg10 mi
1:51 PM82 °FScattered clouds.8 mph48%29.98 "Hg10 mi
12:51 PM82 °FBroken clouds.7 mph44%29.99 "Hg10 mi
11:51 AM80 °FBroken clouds.5 mph47%30.00 "Hg10 mi
10:51 AM79 °FBroken clouds.5 mph48%30.01 "Hg10 mi
9:51 AM77 °FBroken clouds.No wind58%30.00 "Hg10 mi
8:51 AM75 °FBroken clouds.6 mph64%29.98 "Hg10 mi
7:51 AM73 °FPartly sunny.3 mph76%29.98 "Hg10 mi
6:51 AM72 °FPassing clouds.No wind78%29.96 "Hg10 mi
5:51 AM72 °FPassing clouds.No wind76%29.96 "Hg10 mi
4:51 AM72 °FPartly cloudy.No wind78%29.94 "Hg10 mi
Weather by CustomWeather, © 2014

See weather overviewHow to use our weather pages